星链-37779(STARLINK-37779)

导读

STARLINK-37779(NORAD编号69350)是美国太空探索技术公司(SpaceX)星链低轨通信星座的成员卫星,属于为全球提供高速卫星互联网服务的星链网络组成部分。星链卫星普遍运行于数百公里高度的近地轨道,单星设计寿命约5至7年,可支持偏远地区、通信基础设施薄弱区域的网络接入服务。当前公开可查询的通用星链卫星轨道周期约为94分钟左右,该卫星具体发射批次、精确轨道参数等细分信息暂未在公开权威渠道披露,截至2026年6月暂无其异常运行的相关公开通报。

基本信息
目录编号:
69350
目录名称:
STARLINK-37779
国际标识:
2026-122X
轨道中心:
EARTH
卫星名称:
星链-37779
卫星全名:
星链-37779(STARLINK-37779)
卫星状态:
在轨 (已飞行94 天)
发射日期:
2026-06-03 UTC
国别 :
美国 (US)
星等 :
--
轨道信息
数据来源 国际轨道数据
星历时间: 2026-09-05T08:56:01+0800
7小时前
查看轨道信息
半长轴: 6843.668km
偏心率: 0.000137
轨道倾角: 97.284°
近地点辐角 103.756°
升交点赤经 276.940°
平近点角 256.384°
近地点: 464.593km
远地点: 466.469km
周期: 93.906分钟
每日圈数: 15.334493
详细信息
固有亮度:
5
最大亮度:
2.5
卫星平台:
Starlink V1.0
覆盖范围:
全球
运营商:
太空探索技术公司
运营商所在国:
美国
制造商(研发单位):
太空探索技术公司
制造商所在国:
美国
使用方式:
暂无
卫星简介
Starlink 计划是 SpaceX 推出的全球卫星互联网项目,通过发射低轨道卫星,为全球尤其是偏远地区提供高速、低延迟的互联网服务。自 2019 年起,Starlink 已部署数千颗卫星,旨在缩小全球数字鸿沟,推动互联网普及。该项目还为军事、航空等行业提供通信支持,带来广泛经济效益。
2D轨道图
3D轨道图
轨道高度分析图
轨道倾角分析图
轨道综合分析图
查看轨道综合分析图
交会数据列表
事件ID 空间交会对象 最接近时刻(TCA) 交会距离 交会风险概率(CRP) 交会风险指数(CRI) 操作
CDM_260907-103006-801506-935021
2026-09-07T
10:30:49+0000
0.768 km
远距离
4.893172E-5 中风险 0.69
CDM_260907-155906-801506-935021
2026-09-07T
15:59:41+0000
0.907 km
远距离
2.84679E-5 中风险 0.64
CDM_260907-085606-801506-935021
2026-09-07T
08:56:52+0000
0.916 km
远距离
2.747787E-5 中风险 0.64
CDM_260907-142506-801506-935021
2026-09-07T
14:25:44+0000
1.543 km
极远距离
4.659638E-6 低风险 0.48
CDM_260907-173306-801506-935021
2026-09-07T
17:33:39+0000
1.765 km
极远距离
3.103079E-6 低风险 0.45
CDM_260907-120406-801506-935021
2026-09-07T
12:04:47+0000
1.967 km
极远距离
2.309907E-6 低风险 0.42
CDM_260907-072206-801506-935021
2026-09-07T
07:22:54+0000
2.123 km
极远距离
1.92141E-6 低风险 0.41
CDM_260906-071905-250106-935022
2026-09-06T
07:19:55+0000
2.274 km
极远距离
1.333347E-6 低风险 0.37
CDM_260907-154806-624806-935021
2026-09-07T
15:48:00+0000
2.905 km
极远距离
1.306644E-6 低风险 0.37
CDM_260902-011806-489106-935021
OBJECT R (64891)
2026-09-02T
01:18:03+0000
2.464 km
极远距离
1.201252E-6 低风险 0.37